User: anonymous   Login
Location: Shenandoah County Park
(38.9356°N, 78.4524°W)
Time: 10:22:38
(UTC-04:00)
Language:

AIST 2D - Orbit

View from above orbital plane
View from above orbital plane
View from above satellite
View from above satellite

Ground track
Ground track

The orbit data is extracted from the following two-line orbital elements,

1 41465U 16026B   23080.30396515  .00025657  00000-0  41064-3 0  9993
2 41465  97.0126 313.3664 0007182 185.4958 286.0866 15.53082089386308
Epoch (UTC): 21 March 2023 07:17:42
Eccentricity: 0.0007182
inclination: 97.0126°
perigee height: 403 km
apogee height: 412 km
right ascension of ascending node: 313.3664°
argument of perigee: 185.4958°
revolutions per day: 15.53082089
mean anomaly at epoch: 286.0866°
orbit number at epoch: 38630

The dashed part of the orbit path shows where the satellite is in the earth's shadow,  

DLR